Location: Paderno d�Adda
(45.6667°N, 9.4333°E)
Time: 01:26:08
(UTC+00:00)

OBJECT-B - Pass Details

Date: 19 September 2020
Orbit: 421 x 433 km, 97.0° (Epoch: 09 October)

Event Time Altitude Azimuth Distance (km) Brightness Sun altitude
Exits shadow 18:19:24 11° 69° (ENE) 1,433 2.9 -10.2°
Maximum altitude 18:19:40 11° 64° (ENE) 1,429 3.0 -10.3°
Drops below altitude 10° 18:20:48 10° 44° (NE) 1,519 3.3 -10.5°
Sets 18:23:57 0° 9° (N) 2,394 4.6 -11.0°
